TimeEDT,TemperatureF,Dew PointF,Humidity,Sea Level PressureIn,VisibilityMPH,Wind Direction,Wind SpeedMPH,Gust SpeedMPH,PrecipitationIn,Events,Conditions,WindDirDegrees,DateUTC
12:53 AM,32.0,12.9,45,30.28,10.0,North,18.4,-,N/A,,Clear,360,2013-03-18 04:53:00
1:53 AM,30.0,14.0,51,30.32,10.0,NNE,15.0,-,N/A,,Clear,20,2013-03-18 05:53:00
2:53 AM,30.0,10.9,45,30.32,10.0,North,17.3,20.7,N/A,,Clear,360,2013-03-18 06:53:00
3:53 AM,28.9,10.0,45,30.34,10.0,North,15.0,23.0,N/A,,Clear,360,2013-03-18 07:53:00
4:53 AM,28.0,10.0,47,30.35,10.0,North,17.3,-,N/A,,Clear,360,2013-03-18 08:53:00
5:53 AM,27.0,12.9,56,30.38,10.0,North,8.1,-,N/A,,Clear,10,2013-03-18 09:53:00
6:53 AM,27.0,15.1,61,30.41,10.0,North,5.8,-,N/A,,Clear,10,2013-03-18 10:53:00
7:53 AM,30.0,16.0,56,30.43,10.0,NNE,6.9,-,N/A,,Clear,30,2013-03-18 11:53:00
8:53 AM,33.1,15.1,48,30.43,10.0,NE,10.4,-,N/A,,Clear,50,2013-03-18 12:53:00
9:53 AM,34.0,15.1,46,30.43,10.0,NE,6.9,-,N/A,,Clear,50,2013-03-18 13:53:00
10:53 AM,34.0,16.0,48,30.43,10.0,ESE,6.9,-,N/A,,Clear,120,2013-03-18 14:53:00
11:53 AM,36.0,17.1,46,30.41,10.0,NE,12.7,-,N/A,,Clear,50,2013-03-18 15:53:00
12:53 PM,36.0,17.1,46,30.40,10.0,ESE,10.4,19.6,N/A,,Clear,120,2013-03-18 16:53:00
1:53 PM,35.1,17.1,48,30.40,10.0,SE,10.4,-,N/A,,Clear,130,2013-03-18 17:53:00
2:53 PM,34.0,17.1,50,30.38,10.0,ESE,9.2,-,N/A,,Clear,120,2013-03-18 18:53:00
3:53 PM,35.1,18.0,50,30.36,10.0,ESE,9.2,-,N/A,,Clear,110,2013-03-18 19:53:00
4:53 PM,33.1,19.9,59,30.35,10.0,SE,9.2,-,N/A,,Clear,130,2013-03-18 20:53:00
5:53 PM,33.1,19.9,59,30.32,10.0,SE,11.5,-,N/A,,Clear,130,2013-03-18 21:53:00
6:53 PM,33.1,19.9,59,30.31,10.0,ESE,11.5,-,N/A,,Mostly Cloudy,120,2013-03-18 22:53:00
7:53 PM,33.1,21.0,61,30.32,10.0,ESE,9.2,-,N/A,,Overcast,110,2013-03-18 23:53:00
8:53 PM,34.0,21.9,61,30.30,10.0,ESE,12.7,-,N/A,,Overcast,120,2013-03-19 00:53:00
9:53 PM,34.0,23.0,64,30.28,10.0,ESE,16.1,-,N/A,,Overcast,120,2013-03-19 01:53:00
10:53 PM,35.1,24.1,64,30.25,10.0,ESE,12.7,-,N/A,,Overcast,110,2013-03-19 02:53:00
11:53 PM,36.0,24.1,62,30.22,10.0,East,15.0,23.0,N/A,,Overcast,100,2013-03-19 03:53:00